ALSAT 1N

Satellite information

Favourite Embed

Satellite Type and Status

PAYLOADIN ORBIT

Key statistics

Satellite ALSAT 1N at a glance.

Uptime

3206

Days in orbit

Revolutions

≈ 14.7

Per day

Orbit

SSO

Sun Synchronous Orbit

Inclination

97.8

Latest

Satellite identification and parameters

Extended collection of information and parameters for ALSAT 1N.

Object identification

Identified? True

Debris? False

Object name: ALSAT 1N

International designator: 2016-059G

Object number (NORAD): 41789

Object ID (CCSDS): 41789

Country: ALGERIA (ALG)

Current information (Y/N): Y

RCS size: SMALL

Orbital parameters

Period: 98.065 minutes

Inclination: 97.8042 deg

SMA: 7044.288 km

Apoapsis: 684.172 km

Periapsis: 648.134 km

RAAN: 201.74 deg

Eccentricy: 0.0025579

Argument of periapsis: 209.1004 deg

Mean anomaly: 150.8778 deg

Mean motion: 14.68409251 rev/day

Mean motion (dot): 0.00000604 rev/day2

B* drag term: 0.00011207 1/REarth

Two-line elements (TLE)

Creation date: July 6, 2025, 10:46 p.m.

Reference frame: TEME

Reference center: EARTH

Epoch: July 6, 2025, 7:33 p.m. UTC

TLE line 0: 0 ALSAT 1N

TLE line 1: 1 41789U 16059G 25187.81485910 .00000604 00000-0 11207-3 0 9993

TLE line 2: 2 41789 97.8042 201.7400 0025579 209.1004 150.8778 14.68409251469307

Live tracking on map

Real-time ground track for satellite ALSAT 1N.

In-orbit conjunctions

There are no conjunctions computed for ALSAT 1N, at the moment. Check back to stay up to date, as we update our databases every day.

Go to all conjunctions

Associated space launch

ScatSat-1 is a microsatellite of 371 kg and a mission life of 5 years. It is tasked to provide weather forecasting, cyclone prediction, and tracking services to India. This launch will also carry 7 other satellites, the 117kg Alsat-2B, the 103kg Alsat-1B & the 7kg Alsat-1N earth observation satellites for Algerian Space Agency, the 44kg Pathfinder-1 earth imager for Blacksky, the 8kg CanX-7 deorbiter for UTIAS Space Flight Laboratory, the 10kg Pratham Ionospheric Tomographer for IIT Bombay and the 5.25kg PiSat earth imager for PES University.

ALSAT 1N was lifted into orbit during the mission ‘PSLV | SCATSat-1’, on board a PSLV space rocket.

The launch took place on Sept. 26, 2016, 3:42 a.m. from Satish Dhawan Space Centre First Launch Pad.

For more information about the launch, click the button.

Launch to space PSLV | SCATSat-1
PSLV | SCATSat-1

Agency: N/A

Status: Launch Successful

Launch date: Sept. 26, 2016, 3:42 a.m. UTC

Rocket: PSLV

Launch pad: Satish Dhawan Space Centre First Launch Pad

Location: Satish Dhawan Space Centre, India

...

Latest news about this satellite

There are no fresh news available about this satellite. Check back as we update our databases every day.


Newsletter sign-up

Weekly statistics, charts and insights to help you stay on top of the space industry.